Location: Unspecified
(0.0000°N, 0.0000°E)
Time: 15:27:02
(UTC+02:00)

deb Ariane - Visible Passes

Search period start: 16 September 2014 00:00
Search period end: 26 September 2014 00:00
Orbit: 152 x 15596 km, 7.4° (Epoch: 16 September)

Date Brightness Start Highest point End Pass type
(mag) Time Alt. Az. Time Alt. Az. Time Alt. Az.
16 Sep 8.6 01:09:02 10° W 02:25:40 73° SE 04:41:40 10° E visible
16 Sep 8.5 07:07:52 11° W 09:39:17 87° S 09:53:35 10° E visible
17 Sep 8.4 00:36:46 10° W 01:55:09 63° ESE 04:04:05 10° E visible
17 Sep 8.8 06:36:41 20° W 09:02:25 86° S 09:20:43 10° E visible
18 Sep 8.3 00:01:20 10° W 01:21:23 53° ESE 03:20:06 10° E visible
18 Sep 9.2 06:02:16 29° W 08:19:46 84° S 08:44:13 10° E visible
18 Sep 8.0 23:22:43 10° W 23:40:57 83° S 02:27:20 10° E visible
19 Sep 9.5 05:24:33 40° WSW 07:29:21 83° S 08:03:51 10° E visible
19 Sep 7.5 22:40:51 10° W 22:54:10 85° S 01:20:30 10° E visible
20 Sep 9.5 04:43:29 53° WSW 06:26:56 82° S 07:19:20 10° E visible
20 Sep 6.9 21:55:41 10° W 22:05:20 87° S 23:50:25 10° E visible
21 Sep 9.3 02:57:31 10° W 05:03:34 80° S 06:30:15 10° E visible
21 Sep 6.2 21:07:08 10° W 21:14:02 88° N 21:33:46 29° E visible
22 Sep 8.9 02:04:21 10° W 03:20:43 79° S 05:35:51 10° E visible
22 Sep 5.5 20:15:05 10° WNW 20:19:55 80° N 20:43:34 13° E visible
23 Sep 8.6 01:08:38 10° W 02:19:30 72° SE 04:34:50 10° E visible
23 Sep 8.6 06:56:48 13° W 09:26:53 89° N 09:42:54 10° E visible
24 Sep 8.2 00:10:03 10° W 01:24:21 54° ESE 03:24:24 10° E visible
24 Sep 9.2 06:00:55 28° W 08:18:18 87° S 08:43:36 10° E visible
24 Sep 7.8 23:08:22 10° W 23:24:02 80° S 01:57:30 10° E visible
25 Sep 9.8 05:01:19 46° WSW 06:55:15 84° S 07:39:26 10° E visible
25 Sep 6.9 22:03:19 10° W 22:13:07 83° S 23:56:32 10° E visible
